User: anonymous   Login
Location: Ku?niki
(51.4449°N, 17.8974°E)
Time: 15:14:38
(UTC+00:00)
Language:

Cosmos 1464 Rocket - Orbit

View from above orbital plane
View from above orbital plane
View from above satellite
View from above satellite

Ground track
Ground track

The orbit data is extracted from the following two-line orbital elements,

1 14085U 83048B   20339.95174735  .00000060  00000-0  45773-4 0  9995
2 14085  82.9455 229.4921 0033681 160.8108 199.4326 13.76296423884903
Epoch (UTC): 04 December 2020 22:50:30
Eccentricity: 0.0033681
inclination: 82.9455°
perigee height: 952 km
apogee height: 1002 km
right ascension of ascending node: 229.4921°
argument of perigee: 160.8108°
revolutions per day: 13.76296423
mean anomaly at epoch: 199.4326°
orbit number at epoch: 88490

The dashed part of the orbit path shows where the satellite is in the earth's shadow,  

DLR